Time,TemperatureF,DewpointF,PressureIn,WindDirection,WindDirectionDegrees,WindSpeedMPH,WindSpeedGustMPH,Humidity,HourlyPrecipIn,Conditions,Clouds,dailyrainin,SoftwareType,DateUTC
2013-01-23 00:22:00,48.0,17.0,30.18,North,0,0.0,-999.0,29,0.00,,,-99.99,,2013-01-23 08:22:00,
2013-01-23 00:33:00,48.0,17.0,30.18,North,0,0.0,-999.0,29,0.00,,,-99.99,,2013-01-23 08:33:00,
2013-01-23 00:42:00,48.0,17.0,30.18,North,0,0.0,-999.0,29,0.00,,,-99.99,,2013-01-23 08:42:00,
2013-01-23 00:52:00,48.0,17.0,30.18,North,0,0.0,-999.0,29,0.00,,,-99.99,,2013-01-23 08:52:00,
2013-01-23 01:22:00,52.0,17.0,30.16,North,0,0.0,-999.0,25,0.00,,,-99.99,,2013-01-23 09:22:00,
2013-01-23 01:32:00,52.0,17.0,30.16,North,0,0.0,-999.0,25,0.00,,,-99.99,,2013-01-23 09:32:00,
2013-01-23 01:43:00,52.0,17.0,30.16,North,0,0.0,-999.0,25,0.00,,,-99.99,,2013-01-23 09:43:00,
2013-01-23 01:52:00,52.0,17.0,30.16,North,0,0.0,-999.0,25,0.00,,,-99.99,,2013-01-23 09:52:00,
2013-01-23 02:22:00,53.0,23.0,30.15,North,0,0.0,-999.0,31,0.00,,,-99.99,,2013-01-23 10:22:00,
2013-01-23 02:32:00,53.0,23.0,30.15,North,0,0.0,-999.0,31,0.00,,,-99.99,,2013-01-23 10:32:00,
2013-01-23 02:42:00,53.0,23.0,30.15,North,0,0.0,-999.0,31,0.00,,,-99.99,,2013-01-23 10:42:00,
2013-01-23 02:52:00,53.0,23.0,30.15,North,0,0.0,-999.0,31,0.00,,,-99.99,,2013-01-23 10:52:00,
2013-01-23 03:22:00,55.0,26.0,30.13,West,280,1.0,-999.0,33,0.00,,,-99.99,,2013-01-23 11:22:00,
2013-01-23 03:33:00,55.0,26.0,30.13,West,280,1.0,-999.0,33,0.00,,,-99.99,,2013-01-23 11:33:00,
2013-01-23 03:42:00,55.0,26.0,30.13,West,280,1.0,-999.0,33,0.00,,,-99.99,,2013-01-23 11:42:00,
2013-01-23 03:52:00,55.0,26.0,30.13,West,280,1.0,-999.0,33,0.00,,,-99.99,,2013-01-23 11:52:00,
2013-01-23 04:22:00,56.0,31.0,30.11,NE,50,3.0,-999.0,38,0.00,,,-99.99,,2013-01-23 12:22:00,
2013-01-23 04:33:00,56.0,31.0,30.11,NE,50,3.0,-999.0,38,0.00,,,-99.99,,2013-01-23 12:33:00,
2013-01-23 04:42:00,56.0,31.0,30.11,NE,50,3.0,-999.0,38,0.00,,,-99.99,,2013-01-23 12:42:00,
2013-01-23 04:52:00,56.0,31.0,30.11,NE,50,3.0,-999.0,38,0.00,,,-99.99,,2013-01-23 12:52:00,
2013-01-23 05:23:00,55.0,31.0,30.09,SW,220,2.0,-999.0,40,0.00,,,-99.99,,2013-01-23 13:23:00,
2013-01-23 05:33:00,55.0,31.0,30.09,SW,220,2.0,-999.0,40,0.00,,,-99.99,,2013-01-23 13:33:00,
2013-01-23 05:42:00,55.0,31.0,30.09,SW,220,2.0,-999.0,40,0.00,,,-99.99,,2013-01-23 13:42:00,
2013-01-23 05:52:00,55.0,31.0,30.09,SW,220,2.0,-999.0,40,0.00,,,-99.99,,2013-01-23 13:52:00,
2013-01-23 06:23:00,55.0,32.0,30.08,SE,130,8.0,-999.0,42,0.00,,,-99.99,,2013-01-23 14:23:00,
2013-01-23 06:33:00,55.0,32.0,30.08,SE,130,8.0,-999.0,42,0.00,,,-99.99,,2013-01-23 14:33:00,
2013-01-23 06:42:00,55.0,32.0,30.08,SE,130,8.0,-999.0,42,0.00,,,-99.99,,2013-01-23 14:42:00,
2013-01-23 06:53:00,55.0,32.0,30.08,SE,130,8.0,-999.0,42,0.00,,,-99.99,,2013-01-23 14:53:00,
2013-01-23 07:22:00,55.0,32.0,30.08,South,190,2.0,-999.0,42,0.00,,,-99.99,,2013-01-23 15:22:00,
2013-01-23 07:33:00,55.0,32.0,30.08,South,190,2.0,-999.0,42,0.00,,,-99.99,,2013-01-23 15:33:00,
2013-01-23 07:43:00,55.0,32.0,30.08,South,190,2.0,-999.0,42,0.00,,,-99.99,,2013-01-23 15:43:00,
2013-01-23 07:52:00,55.0,32.0,30.08,South,190,2.0,-999.0,42,0.00,,,-99.99,,2013-01-23 15:52:00,
2013-01-23 08:23:00,55.0,32.0,30.09,North,0,0.0,-999.0,42,0.00,,,-99.99,,2013-01-23 16:23:00,
2013-01-23 08:32:00,55.0,32.0,30.09,North,0,0.0,-999.0,42,0.00,,,-99.99,,2013-01-23 16:32:00,
2013-01-23 08:42:00,55.0,32.0,30.09,North,0,0.0,-999.0,42,0.00,,,-99.99,,2013-01-23 16:42:00,
2013-01-23 08:52:00,55.0,32.0,30.09,North,0,0.0,-999.0,42,0.00,,,-99.99,,2013-01-23 16:52:00,
2013-01-23 09:22:00,54.0,32.0,30.09,North,0,0.0,-999.0,43,0.00,,,-99.99,,2013-01-23 17:22:00,
2013-01-23 09:33:00,54.0,32.0,30.09,North,0,0.0,-999.0,43,0.00,,,-99.99,,2013-01-23 17:33:00,
2013-01-23 09:42:00,54.0,32.0,30.09,North,0,0.0,-999.0,43,0.00,,,-99.99,,2013-01-23 17:42:00,
2013-01-23 09:52:00,54.0,32.0,30.09,North,0,0.0,-999.0,43,0.00,,,-99.99,,2013-01-23 17:52:00,
2013-01-23 10:23:00,61.0,30.0,30.10,SSW,200,2.0,-999.0,31,0.00,,,-99.99,,2013-01-23 18:23:00,
2013-01-23 10:33:00,61.0,30.0,30.10,SSW,200,2.0,-999.0,31,0.00,,,-99.99,,2013-01-23 18:33:00,
2013-01-23 10:43:00,61.0,30.0,30.10,SSW,200,2.0,-999.0,31,0.00,,,-99.99,,2013-01-23 18:43:00,
2013-01-23 10:52:00,61.0,30.0,30.10,SSW,200,2.0,-999.0,31,0.00,,,-99.99,,2013-01-23 18:52:00,
2013-01-23 11:22:00,59.0,30.0,30.09,SE,140,1.0,-999.0,33,0.00,,,-99.99,,2013-01-23 19:22:00,
2013-01-23 11:33:00,59.0,30.0,30.09,SE,140,1.0,-999.0,33,0.00,,,-99.99,,2013-01-23 19:33:00,
2013-01-23 11:43:00,59.0,30.0,30.09,SE,140,1.0,-999.0,33,0.00,,,-99.99,,2013-01-23 19:43:00,
2013-01-23 11:52:00,59.0,30.0,30.09,SE,140,1.0,-999.0,33,0.00,,,-99.99,,2013-01-23 19:52:00,
2013-01-23 12:23:00,61.0,32.0,30.06,ESE,120,1.0,-999.0,34,0.00,,,-99.99,,2013-01-23 20:23:00,
2013-01-23 12:33:00,61.0,32.0,30.06,ESE,120,1.0,-999.0,34,0.00,,,-99.99,,2013-01-23 20:33:00,
2013-01-23 12:42:00,61.0,32.0,30.06,ESE,120,1.0,-999.0,34,0.00,,,-99.99,,2013-01-23 20:42:00,
2013-01-23 12:53:00,61.0,32.0,30.06,ESE,120,1.0,-999.0,34,0.00,,,-99.99,,2013-01-23 20:53:00,
2013-01-23 13:22:00,60.0,32.0,30.04,SSW,200,3.0,-999.0,34,0.00,,,-99.99,,2013-01-23 21:22:00,
2013-01-23 13:33:00,60.0,32.0,30.04,SSW,200,3.0,-999.0,34,0.00,,,-99.99,,2013-01-23 21:33:00,
2013-01-23 13:42:00,60.0,32.0,30.04,SSW,200,3.0,-999.0,34,0.00,,,-99.99,,2013-01-23 21:42:00,
2013-01-23 13:52:00,60.0,32.0,30.04,SSW,200,3.0,-999.0,34,0.00,,,-99.99,,2013-01-23 21:52:00,
2013-01-23 14:22:00,59.0,30.0,30.02,North,0,0.0,-999.0,33,0.00,,,-99.99,,2013-01-23 22:22:00,
2013-01-23 14:33:00,59.0,30.0,30.02,North,0,0.0,-999.0,33,0.00,,,-99.99,,2013-01-23 22:33:00,
2013-01-23 14:42:00,59.0,30.0,30.02,North,0,0.0,-999.0,33,0.00,,,-99.99,,2013-01-23 22:42:00,
2013-01-23 14:52:00,59.0,30.0,30.02,North,0,0.0,-999.0,33,0.00,,,-99.99,,2013-01-23 22:52:00,
2013-01-23 15:22:00,57.0,27.0,30.03,SSW,210,1.0,-999.0,32,0.00,,,-99.99,,2013-01-23 23:22:00,
2013-01-23 15:33:00,57.0,27.0,30.03,SSW,210,1.0,-999.0,32,0.00,,,-99.99,,2013-01-23 23:33:00,
2013-01-23 15:42:00,57.0,27.0,30.03,SSW,210,1.0,-999.0,32,0.00,,,-99.99,,2013-01-23 23:42:00,
2013-01-23 15:52:00,57.0,27.0,30.03,SSW,210,1.0,-999.0,32,0.00,,,-99.99,,2013-01-23 23:52:00,
2013-01-23 16:22:00,55.0,29.0,30.02,WSW,240,4.0,-999.0,37,0.00,,,-99.99,,2013-01-24 00:22:00,
2013-01-23 16:32:00,55.0,29.0,30.02,WSW,240,4.0,-999.0,37,0.00,,,-99.99,,2013-01-24 00:32:00,
2013-01-23 16:42:00,55.0,29.0,30.02,WSW,240,4.0,-999.0,37,0.00,,,-99.99,,2013-01-24 00:42:00,
2013-01-23 16:52:00,55.0,29.0,30.02,WSW,240,4.0,-999.0,37,0.00,,,-99.99,,2013-01-24 00:52:00,
2013-01-23 17:22:00,52.0,30.0,30.03,East,80,1.0,-999.0,42,0.00,,,-99.99,,2013-01-24 01:22:00,
2013-01-23 17:33:00,52.0,30.0,30.03,East,80,1.0,-999.0,42,0.00,,,-99.99,,2013-01-24 01:33:00,
2013-01-23 17:42:00,52.0,30.0,30.03,East,80,1.0,-999.0,42,0.00,,,-99.99,,2013-01-24 01:42:00,
2013-01-23 17:52:00,52.0,30.0,30.03,East,80,1.0,-999.0,42,0.00,,,-99.99,,2013-01-24 01:52:00,
2013-01-23 18:22:00,51.0,28.0,30.03,East,100,7.0,-999.0,41,0.00,,,-99.99,,2013-01-24 02:22:00,
2013-01-23 18:33:00,51.0,28.0,30.03,East,100,7.0,-999.0,41,0.00,,,-99.99,,2013-01-24 02:33:00,
2013-01-23 18:42:00,51.0,28.0,30.03,East,100,7.0,-999.0,41,0.00,,,-99.99,,2013-01-24 02:42:00,
2013-01-23 18:52:00,51.0,28.0,30.03,East,100,7.0,-999.0,41,0.00,,,-99.99,,2013-01-24 02:52:00,
2013-01-23 19:22:00,49.0,25.0,30.02,ENE,60,2.0,-999.0,39,0.00,,,-99.99,,2013-01-24 03:22:00,
2013-01-23 19:32:00,49.0,25.0,30.02,ENE,60,2.0,-999.0,39,0.00,,,-99.99,,2013-01-24 03:32:00,
2013-01-23 19:42:00,49.0,25.0,30.02,ENE,60,2.0,-999.0,39,0.00,,,-99.99,,2013-01-24 03:42:00,
2013-01-23 19:52:00,49.0,25.0,30.02,ENE,60,2.0,-999.0,39,0.00,,,-99.99,,2013-01-24 03:52:00,
2013-01-23 20:22:00,48.0,27.0,30.02,NW,310,4.0,-999.0,44,0.00,,,-99.99,,2013-01-24 04:22:00,
2013-01-23 20:32:00,48.0,27.0,30.02,NW,310,4.0,-999.0,44,0.00,,,-99.99,,2013-01-24 04:32:00,
2013-01-23 20:42:00,48.0,27.0,30.02,NW,310,4.0,-999.0,44,0.00,,,-99.99,,2013-01-24 04:42:00,
2013-01-23 20:52:00,48.0,27.0,30.02,NW,310,4.0,-999.0,44,0.00,,,-99.99,,2013-01-24 04:52:00,
2013-01-23 21:22:00,48.0,31.0,30.01,SE,130,1.0,-999.0,51,0.00,,,-99.99,,2013-01-24 05:22:00,
2013-01-23 21:32:00,48.0,31.0,30.01,SE,130,1.0,-999.0,51,0.00,,,-99.99,,2013-01-24 05:32:00,
2013-01-23 21:42:00,48.0,31.0,30.01,SE,130,1.0,-999.0,51,0.00,,,-99.99,,2013-01-24 05:42:00,
2013-01-23 21:52:00,48.0,31.0,30.01,SE,130,1.0,-999.0,51,0.00,,,-99.99,,2013-01-24 05:52:00,
2013-01-23 22:22:00,50.0,33.0,30.00,NE,50,10.0,-999.0,51,0.00,,,-99.99,,2013-01-24 06:22:00,
2013-01-23 22:32:00,50.0,33.0,30.00,NE,50,10.0,-999.0,51,0.00,,,-99.99,,2013-01-24 06:32:00,
2013-01-23 22:42:00,50.0,33.0,30.00,NE,50,10.0,-999.0,51,0.00,,,-99.99,,2013-01-24 06:42:00,
2013-01-23 22:52:00,50.0,33.0,30.00,NE,50,10.0,-999.0,51,0.00,,,-99.99,,2013-01-24 06:52:00,
2013-01-23 23:22:00,44.0,32.0,30.00,NE,40,2.0,-999.0,63,0.01,,,-99.99,,2013-01-24 07:22:00,
2013-01-23 23:33:00,44.0,32.0,30.00,NE,40,2.0,-999.0,63,0.01,,,-99.99,,2013-01-24 07:33:00,
2013-01-23 23:42:00,44.0,32.0,30.00,NE,40,2.0,-999.0,63,0.01,,,-99.99,,2013-01-24 07:42:00,
2013-01-23 23:52:00,44.0,32.0,30.00,NE,40,2.0,-999.0,63,0.01,,,-99.99,,2013-01-24 07:52:00,